Wind_Speed
29 29 32 37 39 39 39 38 37 36 39 42 44 43 43 44 43 44 43 41 39 34 30 28 28 29 30 27 23 21 20 22 23 22 26 28 21 18 17 12 13 13 12 14 16 16 15 13 12 13 14 12 10 12 11 9 10 6 2 2 3 2 2 4 5 3 1 3 8 11 13 9 6 9 7 4 7 5 6 10 10 10 9 7 5 5 15 21
29 29 33 38 40 40 38 37 36 36 38 40 43 44 43 43 43 43 41 39 36 31 29 28 28 29 29 26 23 20 19 21 23 26 29 27 21 18 17 13 13 14 14 16 18 18 16 14 14 16 15 11 9 12 10 9 8 4 1 2 3 1 1 1 3 4 1 2 8 11 13 9 5 9 9 5 5 6 6 8 11 11 11 10 6 5 13 20
29 29 33 38 40 40 38 37 36 36 37 38 42 43 43 43 43 41 40 37 33 30 29 28 29 28 26 23 20 18 18 19 21 27 30 26 22 19 16 14 14 15 15 17 18 17 15 14 16 17 15 9 9 12 8 7 6 2 2 4 2 1 1 1 3 4 1 3 7 10 12 7 4 9 9 5 4 5 8 9 10 12 13 15 11 7 11 19
30 29 32 37 40 40 38 37 36 36 36 37 40 42 43 43 42 41 39 36 32 30 29 29 28 26 22 20 19 18 17 13 17 30 30 25 22 19 17 16 16 15 16 17 17 16 13 13 17 18 13 6 7 11 7 7 6 3 3 2 2 2 1 3 4 4 3 2 5 9 10 7 6 10 8 6 4 6 10 11 11 12 12 15 15 12 11 17
30 30 32 36 40 41 39 36 36 36 35 36 38 40 42 42 42 40 38 35 32 31 30 29 28 25 21 21 19 19 15 6 14 26 27 24 22 20 18 17 17 16 17 17 17 17 14 15 20 18 10 5 7 8 5 7 7 4 2 2 3 4 1 3 4 4 4 3 7 10 9 8 8 8 8 8 6 3 4 8 11 12 11 12 14 15 13 16
31 31 32 34 38 42 40 36 36 36 34 36 37 39 41 41 41 40 37 35 33 32 31 29 27 24 23 22 20 20 17 5 4 11 19 22 21 21 20 17 18 18 17 16 17 18 16 19 21 15 8 5 6 5 6 9 7 3 1 1 3 3 2 4 5 4 5 4 7 9 7 8 9 6 9 12 11 6 2 2 4 7 11 12 11 14 15 15
32 33 32 32 36 40 38 35 37 36 34 35 36 38 40 41 41 39 37 35 34 33 31 28 25 24 24 23 20 21 22 14 3 3 13 21 21 22 20 18 20 19 18 17 18 19 19 23 20 15 10 5 5 5 8 11 5 3 2 3 4 4 2 3 4 4 6 6 6 9 7 7 8 5 7 14 16 14 11 6 2 1 5 11 12 13 15 14
34 34 32 32 35 37 37 36 36 35 33 33 35 38 40 40 40 39 37 35 34 33 30 28 25 25 25 24 23 21 24 24 12 7 9 19 20 22 20 19 21 20 19 17 18 20 22 25 21 17 9 4 8 8 11 10 3 4 3 5 5 4 3 3 4 4 6 6 7 9 5 3 6 4 5 12 15 15 16 14 10 6 3 7 12 14 14 14
35 34 31 34 37 36 36 35 35 34 32 33 34 36 39 39 38 38 37 35 34 32 30 28 26 27 25 26 24 17 20 27 18 7 7 19 21 21 21 20 22 21 19 17 18 21 22 25 23 17 7 6 12 10 13 9 3 5 5 7 7 4 5 5 5 5 5 6 8 8 3 1 4 4 8 14 15 14 15 16 15 14 11 8 10 14 15 15
35 33 33 37 38 36 36 34 33 32 32 33 32 35 37 37 37 37 36 35 33 31 30 29 28 29 26 26 21 12 18 25 20 9 6 18 22 20 22 21 21 21 18 18 19 21 23 24 24 16 8 11 12 9 14 7 3 10 10 9 7 6 5 4 5 5 5 7 7 5 3 2 2 2 6 9 11 13 14 16 16 15 15 14 12 12 15 16
34 33 35 38 37 35 35 34 33 33 33 32 31 34 36 37 37 36 35 33 32 31 30 30 29 28 26 26 20 11 15 19 20 15 8 16 20 19 22 20 19 19 18 20 19 21 20 18 21 14 6 12 12 8 9 4 5 15 15 11 7 6 6 4 5 5 4 4 4 3 3 2 3 3 6 6 7 7 8 12 16 17 15 16 15 14 15 17
35 36 36 37 37 35 34 34 34 33 32 31 31 33 35 36 35 34 33 32 32 31 30 30 28 27 25 24 22 16 14 13 16 15 9 14 19 18 21 19 18 17 18 20 19 21 16 14 19 12 6 14 12 7 7 8 12 16 11 6 4 4 4 3 2 3 1 2 4 4 2 4 6 7 7 8 10 8 6 7 11 16 16 15 16 16 15 17
36 37 37 36 36 35 34 35 34 32 31 31 31 32 34 34 34 33 33 32 31 29 28 28 26 26 23 17 20 21 13 10 13 13 11 15 18 19 20 18 17 17 18 18 18 20 15 14 17 11 13 15 8 7 11 12 13 12 4 1 4 4 3 2 1 2 2 3 6 4 4 5 6 8 7 9 10 9 9 8 8 12 15 15 15 16 16 16
36 37 37 36 33 34 35 35 33 31 30 29 30 32 32 33 32 31 31 30 29 28 27 26 24 25 21 13 17 22 15 9 12 12 12 17 18 19 19 18 17 17 18 17 17 18 14 16 16 9 13 14 11 14 12 8 6 7 3 1 3 5 3 3 2 2 3 4 6 4 6 6 3 2 5 10 11 9 9 9 10 10 13 15 16 17 17 16
36 37 38 35 32 33 35 35 32 30 28 28 31 31 32 31 30 30 29 28 27 26 25 25 24 22 16 10 11 19 18 11 11 12 13 19 19 18 18 17 16 16 17 16 16 18 14 15 14 9 11 14 17 14 7 4 2 2 4 4 3 4 3 4 2 1 1 3 5 5 5 6 4 0 2 6 9 10 10 10 11 11 12 14 16 17 18 18
36 38 37 34 33 34 35 34 31 29 28 29 31 31 31 30 29 29 27 27 26 25 25 24 25 21 10 8 10 16 21 15 12 13 15 19 19 17 18 16 16 15 15 14 15 17 16 14 13 11 11 11 11 7 6 5 2 1 3 4 4 4 4 3 2 2 2 2 5 5 4 3 1 1 1 4 5 6 8 10 12 13 12 14 16 18 19 20
36 38 35 32 33 34 34 33 31 29 29 32 32 31 30 29 28 27 26 26 24 24 24 22 24 18 6 8 11 14 22 19 14 14 16 20 19 17 17 17 16 16 15 15 16 17 16 13 12 9 7 4 2 5 8 5 5 4 2 1 2 3 4 3 3 1 1 2 5 5 5 8 2 1 2 3 3 4 6 8 9 12 13 13 15 18 20 21
38 37 32 31 32 34 33 33 32 30 32 34 32 31 30 28 27 26 26 26 25 23 19 20 21 12 6 12 13 13 21 21 16 15 17 20 18 17 18 17 17 18 17 16 14 13 12 9 7 5 4 2 3 7 8 5 7 8 6 4 2 2 4 3 2 1 0 2 5 5 7 12 9 7 7 7 9 10 12 13 14 14 14 14 16 18 21 22
38 36 32 32 32 34 33 33 34 31 34 35 32 32 29 27 25 23 28 29 26 17 9 20 23 6 2 15 16 13 18 20 16 16 19 21 19 18 17 16 20 20 16 12 8 8 8 6 4 5 6 7 8 9 5 2 5 8 7 5 5 5 4 2 2 2 1 3 6 8 8 11 11 10 10 11 12 14 16 18 20 20 18 17 17 19 21 22
38 36 34 32 33 35 34 35 34 33 37 36 37 36 28 26 19 15 27 29 22 9 3 25 31 4 4 16 20 15 18 19 18 19 21 21 20 19 16 17 19 17 10 7 5 6 5 5 6 7 8 10 9 4 3 3 3 8 7 3 3 4 2 1 2 2 1 4 6 6 8 11 12 11 12 12 10 12 16 18 21 24 23 20 19 20 21 20
37 36 34 33 34 35 34 36 33 35 38 37 43 36 25 28 15 14 26 18 11 6 5 27 31 7 2 18 23 21 21 17 17 22 21 21 22 18 15 15 13 8 4 4 6 5 4 7 7 4 3 6 6 5 6 5 5 6 6 5 3 2 1 1 1 2 1 3 2 1 6 12 12 12 14 13 9 11 15 16 18 21 22 21 20 21 22 21
35 36 35 34 35 34 34 35 32 37 38 39 44 29 26 32 16 23 31 12 6 6 10 29 24 7 7 18 23 23 20 13 13 22 22 24 24 16 13 12 8 5 3 4 6 5 5 7 4 5 6 8 6 3 6 6 5 4 3 4 3 1 2 2 1 2 1 2 1 1 4 10 11 11 13 14 12 12 15 18 18 18 20 21 21 21 22 23
34 35 35 35 35 33 34 33 33 38 38 41 40 24 28 28 12 27 31 12 7 6 12 28 17 7 13 18 20 19 16 10 12 22 24 26 23 15 14 10 5 5 4 6 8 6 6 4 4 8 9 10 5 2 6 6 3 2 2 4 2 1 2 2 3 3 1 1 2 2 5 9 8 9 10 12 12 14 17 20 21 22 22 24 24 24 25 25
34 35 35 35 34 33 33 33 35 37 38 41 35 24 29 23 16 31 24 9 6 4 11 24 15 11 16 17 18 13 11 10 13 22 25 25 21 14 13 9 6 6 5 6 7 6 3 2 4 7 7 8 7 4 6 6 3 0 2 3 2 3 2 1 4 4 1 1 1 2 6 7 4 6 7 4 5 10 13 14 14 16 19 21 23 24 25 26
34 34 35 35 33 33 33 32 34 35 39 41 31 26 30 23 24 32 16 6 4 3 9 17 11 12 15 16 16 11 9 9 12 23 26 24 20 12 9 8 6 6 5 5 5 4 1 2 6 8 4 5 7 5 6 6 4 2 4 3 2 5 6 4 5 4 2 3 1 2 6 4 1 3 5 0 2 4 5 5 6 7 10 13 15 16 18 21
32 33 34 35 33 35 33 29 32 35 39 38 29 29 30 26 29 28 11 4 4 2 6 11 9 11 13 13 16 14 8 6 12 23 25 22 20 13 9 6 2 3 6 5 3 1 2 2 4 6 7 7 6 6 5 5 5 3 3 2 3 5 8 8 7 4 2 1 1 1 5 4 1 3 3 1 4 5 4 3 2 2 4 6 8 11 13 15
29 31 34 34 34 37 33 28 34 38 38 34 29 31 30 28 30 23 7 2 4 5 6 7 8 12 12 13 18 13 4 8 13 18 22 20 18 13 9 5 2 3 4 4 3 1 4 5 2 4 7 7 6 6 5 7 6 2 1 2 6 7 8 8 7 3 0 1 1 0 2 4 5 3 0 1 4 6 3 3 1 1 2 2 4 7 10 12
27 30 33 33 34 37 34 32 38 41 38 32 30 32 30 31 28 16 5 2 4 6 5 6 7 12 14 16 18 9 6 13 10 11 19 18 14 10 6 5 5 5 3 3 5 1 3 5 6 7 7 6 5 2 3 8 4 0 1 1 4 6 5 5 4 2 2 1 4 2 1 4 6 2 1 1 4 6 3 3 2 2 2 2 1 4 7 9
26 27 30 32 32 34 32 31 38 40 35 30 30 31 31 30 21 8 2 3 4 4 5 8 9 11 15 15 11 6 9 9 3 9 18 14 11 6 3 6 8 9 4 1 2 1 1 3 5 5 5 5 2 3 1 3 1 4 5 5 6 5 5 4 2 3 2 3 5 2 2 4 5 3 2 1 2 6 3 3 2 2 3 4 3 1 3 6
27 26 28 30 32 35 30 26 32 35 33 32 31 32 32 24 13 6 4 4 4 3 5 9 9 11 14 10 4 3 5 2 4 13 13 7 8 6 8 10 10 8 4 5 5 2 2 1 1 0 1 3 5 5 5 2 6 11 8 7 8 5 3 3 2 2 2 4 2 2 2 3 4 3 3 2 2 2 2 4 3 3 4 5 5 5 6 7
27 26 27 27 30 33 29 26 31 33 34 35 33 33 28 12 3 6 5 4 5 3 3 6 6 10 15 11 5 3 3 2 6 13 9 4 6 7 9 8 6 4 2 3 4 2 2 3 2 1 3 5 6 6 7 4 6 6 4 6 7 3 2 2 2 1 4 4 2 3 2 3 5 3 1 0 1 1 2 5 5 3 4 5 5 7 10 12
27 25 24 22 24 27 26 27 32 35 36 35 35 32 19 5 2 5 4 5 6 5 5 6 6 9 15 13 8 5 3 3 4 7 6 4 4 6 4 4 5 4 4 5 4 2 3 2 1 2 3 5 4 6 6 2 1 2 4 8 5 3 2 3 2 2 4 2 2 1 1 3 7 6 4 5 4 4 5 4 3 2 3 4 6 9 12 15
27 24 21 19 19 23 25 28 34 37 36 37 34 22 7 4 8 6 5 6 3 3 5 6 6 8 12 11 7 4 3 3 5 4 2 2 4 4 0 0 3 2 3 6 4 3 3 1 1 2 3 6 4 5 5 4 5 5 7 7 6 5 4 5 3 1 3 0 2 1 1 3 5 5 8 10 5 5 7 6 4 1 2 2 7 11 14 16
29 23 21 18 17 23 25 28 35 36 37 38 27 11 4 7 8 5 6 4 0 3 4 6 8 9 9 6 5 6 3 1 3 4 3 3 4 4 3 2 3 1 3 4 3 5 4 3 4 3 2 5 4 1 2 4 5 3 1 2 4 4 4 4 3 2 2 2 2 1 2 4 2 1 2 3 0 4 8 8 8 4 1 3 10 14 16 18
28 22 20 18 20 25 26 30 36 36 39 34 16 5 7 9 6 5 8 4 2 4 4 6 10 10 6 1 1 5 2 1 2 3 4 6 6 7 7 6 5 2 4 5 3 3 2 1 1 2 1 4 3 3 2 4 4 0 2 0 2 2 2 2 1 0 1 1 2 3 3 3 2 3 2 2 2 5 9 9 8 4 3 9 13 16 19 22
30 25 21 19 23 27 27 33 36 36 38 27 9 6 8 6 3 4 6 5 5 8 10 8 6 7 6 1 0 5 1 2 6 4 3 3 4 7 8 6 7 6 6 6 3 1 2 0 2 2 2 2 0 2 2 1 2 2 2 3 2 1 4 4 1 2 1 3 2 3 4 3 3 5 2 2 2 2 5 7 7 6 9 13 15 19 23 25
32 28 24 22 25 27 28 34 36 37 35 18 7 9 5 1 1 2 4 7 9 13 14 8 4 6 8 4 4 8 3 3 5 4 4 3 2 6 7 4 8 12 7 3 2 2 3 2 2 1 2 2 2 2 4 4 2 2 4 5 3 1 1 2 1 2 1 4 1 2 5 4 3 3 1 3 4 4 5 5 7 10 13 14 17 21 24 25
31 27 24 24 26 27 30 33 35 36 26 10 9 10 2 1 2 2 7 10 11 12 10 7 3 3 7 8 6 8 7 5 5 4 5 5 5 9 10 5 7 13 10 3 1 2 2 2 1 1 1 1 2 1 3 3 5 1 2 4 3 2 3 2 2 2 3 4 2 2 3 3 5 4 0 2 7 8 7 5 7 10 13 16 20 22 23 25
31 24 19 24 28 27 29 32 34 32 16 5 11 10 1 3 2 4 11 11 8 8 7 5 2 1 5 7 7 8 8 7 7 6 6 5 4 8 14 11 6 12 14 6 2 2 1 1 2 1 1 0 1 2 5 4 2 2 1 3 0 2 2 3 2 2 3 3 2 1 1 3 5 5 5 6 8 10 9 7 7 12 17 22 23 23 24 25
29 17 13 27 32 27 28 30 28 21 9 5 8 5 2 4 2 5 13 11 4 3 4 4 4 4 5 4 6 8 7 5 8 8 6 6 5 3 9 12 6 7 12 6 2 2 2 1 2 2 1 2 3 3 4 5 4 3 4 5 3 1 1 1 1 1 1 3 3 2 3 3 2 4 8 6 3 4 7 7 8 12 20 27 27 25 26 27
25 9 11 32 34 28 30 26 16 10 5 3 3 1 2 4 4 7 11 8 3 1 2 3 4 5 5 5 6 7 4 3 6 8 4 6 8 3 8 14 10 9 8 3 2 3 1 1 3 4 3 3 2 1 2 2 1 2 4 5 6 4 3 4 4 1 1 1 2 1 3 3 1 2 5 2 2 1 4 7 9 13 22 29 29 27 28 28
19 4 16 36 34 32 32 18 6 5 3 2 2 3 4 5 6 8 8 5 3 2 2 3 3 3 3 5 6 7 7 4 5 7 5 7 10 5 8 16 18 19 13 4 3 3 2 3 4 3 3 2 2 1 0 2 2 1 2 2 3 3 4 5 6 4 3 1 1 1 3 3 1 1 2 1 1 3 4 6 9 15 24 29 28 28 28 27
12 5 24 39 35 35 28 9 4 5 2 2 4 5 5 4 4 6 6 4 2 2 2 2 2 2 2 3 5 8 9 6 5 9 7 6 7 3 7 17 20 19 12 4 3 3 3 3 3 3 1 0 1 1 1 0 1 3 4 2 3 3 2 1 1 3 4 4 3 2 4 4 1 1 2 3 4 5 7 10 12 19 27 28 28 29 28 27
12 12 24 34 35 34 21 7 10 9 3 4 5 4 3 2 3 7 7 5 2 3 3 2 2 2 2 3 5 9 11 7 5 9 5 3 4 2 9 21 22 15 10 8 9 10 6 3 4 4 2 1 1 2 2 2 3 5 3 3 3 2 4 3 1 2 3 5 7 5 6 5 1 1 1 2 4 5 8 12 17 23 28 28 27 28 28 28
12 11 14 22 32 33 14 3 7 7 5 8 6 4 4 3 2 6 8 5 2 3 4 2 2 2 3 4 3 5 10 5 2 6 3 1 2 1 7 21 23 15 10 8 12 15 8 3 6 7 6 6 6 7 7 5 4 3 2 4 7 8 8 5 2 3 4 4 6 7 7 2 2 2 2 1 3 4 6 13 18 23 26 26 26 27 28 28
5 3 6 10 19 22 9 2 4 6 8 10 7 4 5 3 2 3 5 4 2 2 3 2 3 3 3 5 5 5 10 3 2 4 6 3 2 1 3 14 17 12 6 6 15 15 4 1 7 10 10 10 10 9 5 5 6 7 9 10 10 11 11 5 2 4 5 3 4 8 9 5 3 6 5 4 5 6 7 12 18 24 26 26 27 28 28 27
2 1 3 4 6 8 4 2 5 6 8 11 7 4 6 6 4 3 2 2 4 5 2 3 3 5 5 9 7 5 10 5 2 3 5 4 1 2 1 7 9 8 5 9 17 12 2 4 9 11 13 11 6 4 5 6 9 12 12 11 9 10 11 9 8 9 5 4 5 11 12 11 9 8 8 6 7 6 7 14 23 29 29 27 26 27 27 28
2 2 1 2 3 3 3 6 8 8 11 10 5 4 8 8 6 5 3 1 3 6 2 1 5 7 8 12 8 4 7 5 1 2 3 3 3 2 2 1 4 5 4 8 12 7 2 7 9 9 14 11 1 4 5 8 8 7 8 11 11 12 13 13 14 13 7 7 12 14 13 15 12 9 8 9 9 10 14 21 28 30 29 27 27 28 28 29
3 3 3 5 4 2 5 10 11 10 12 11 4 5 10 11 8 5 3 3 3 4 3 4 7 7 7 9 8 6 8 7 6 5 3 4 4 3 2 1 2 4 3 5 6 3 3 6 6 7 12 12 4 3 4 6 5 5 7 10 12 13 14 15 15 15 11 11 16 9 7 12 10 9 8 11 13 12 12 17 22 27 29 29 29 30 31 32
3 3 4 7 7 6 7 10 10 9 9 9 6 6 9 11 9 4 2 4 5 4 4 5 5 5 4 5 6 6 9 10 9 8 8 7 3 3 4 3 3 2 2 3 2 2 4 3 4 6 7 9 5 3 1 3 5 5 5 7 9 12 13 14 15 15 12 13 16 6 2 9 7 9 9 10 10 8 8 13 20 28 32 31 31 32 33 32
6 6 6 6 4 4 5 5 5 7 7 8 8 6 9 13 10 6 2 2 2 5 7 6 6 5 2 3 5 4 6 7 4 8 16 13 8 10 7 4 8 7 3 4 3 3 4 2 2 4 6 7 3 4 4 3 1 2 3 7 12 12 12 13 14 14 12 14 16 9 7 9 5 11 10 9 9 10 12 17 23 30 34 34 35 36 34 31
8 8 8 6 2 1 3 3 3 6 6 7 7 5 7 9 8 8 4 2 2 5 9 11 9 5 2 5 8 5 5 6 1 7 18 13 8 12 9 7 15 13 7 6 4 2 5 4 3 5 8 5 0 3 6 6 2 3 6 11 16 14 14 13 11 12 12 13 12 10 9 6 7 10 10 8 8 12 16 23 28 33 36 36 36 36 34 32
Wind_Direction
204 207 203 200 197 195 195 197 199 200 203 204 204 203 203 203 204 204 207 209 212 213 213 214 213 210 209 210 206 197 200 213 226 240 243 245 247 241 243 246 237 223 206 196 190 190 186 187 186 178 171 168 167 155 146 143 144 148 170 212 198 186 187 178 174 172 34 127 156 172 183 186 170 175 174 162 178 193 216 216 219 213 210 201 189 194 185 182
202 205 202 200 197 195 196 198 199 201 202 203 203 203 203 203 203 204 205 208 209 208 207 206 207 208 206 205 201 196 201 211 226 236 232 240 251 242 237 234 228 216 202 195 193 192 188 188 184 174 169 167 160 152 146 140 140 131 134 213 204 160 119 170 172 161 36 105 150 169 183 194 178 167 174 172 169 186 214 217 221 222 214 204 194 183 185 186
201 205 203 200 197 196 197 198 200 201 202 202 202 201 201 202 202 202 203 204 203 201 200 200 205 207 201 199 199 199 207 217 232 230 225 237 246 237 229 225 220 210 201 196 195 195 193 192 182 173 171 164 153 155 147 143 149 118 175 216 187 116 78 164 188 168 126 100 147 165 175 192 179 166 177 183 161 192 222 215 209 221 220 212 207 198 191 192
199 204 204 201 199 198 199 199 200 201 202 203 202 200 199 200 201 200 200 200 197 195 195 196 202 201 197 199 197 198 202 216 230 225 229 239 237 230 225 219 212 206 199 192 195 197 197 197 182 172 172 153 143 156 145 151 165 144 185 233 96 161 156 155 190 190 195 173 160 157 162 184 181 177 177 170 183 212 228 227 219 222 220 216 213 211 205 199
197 203 205 204 202 200 200 201 201 200 202 204 202 198 197 197 198 198 197 195 192 192 193 194 198 196 196 195 190 188 186 206 227 228 240 239 228 226 221 213 206 202 195 189 194 195 196 195 180 173 173 142 143 153 143 150 154 147 182 8 83 176 150 145 190 194 192 179 161 154 158 180 178 186 188 187 214 221 220 234 233 232 227 222 216 214 212 207
198 202 203 203 204 203 203 203 201 199 201 205 201 196 194 195 195 194 193 192 189 191 192 194 195 192 190 188 186 181 183 205 217 233 243 227 220 219 212 207 200 195 191 189 193 194 193 188 180 177 164 137 157 153 148 153 157 175 177 80 131 153 100 136 181 191 176 164 161 162 163 175 175 194 204 207 227 229 217 239 235 233 228 224 220 218 218 214
196 198 199 199 200 200 199 198 197 198 202 203 198 193 192 192 192 191 190 189 188 191 193 194 192 186 182 181 182 185 200 219 211 277 231 209 210 210 205 199 194 193 191 191 194 195 189 185 185 178 157 132 167 147 147 153 168 212 150 154 150 116 100 137 175 187 175 178 175 172 166 170 187 203 208 221 232 231 232 237 228 230 217 219 220 220 223 224
192 194 197 195 191 190 193 194 196 198 200 198 194 191 190 189 189 188 188 187 189 191 192 193 187 181 179 178 182 190 210 219 224 280 227 198 200 200 196 192 192 193 194 197 198 196 188 186 188 177 159 138 161 145 147 150 177 224 147 154 150 105 114 120 142 155 166 184 174 171 165 171 208 223 234 236 237 234 236 239 239 242 229 217 220 222 225 228
191 193 195 191 188 190 192 194 197 196 193 192 192 189 186 186 185 185 186 187 188 190 191 189 184 180 179 182 185 195 215 215 218 261 227 194 190 192 190 189 191 193 197 203 200 198 191 188 188 182 171 149 151 147 159 166 200 190 140 142 146 110 115 106 116 132 144 161 161 163 149 158 209 239 254 246 244 243 239 241 242 241 242 236 228 226 226 228
190 193 193 191 191 192 193 195 194 190 188 190 191 186 182 182 183 184 186 187 187 188 187 183 181 181 181 183 185 201 217 213 215 234 222 190 185 187 188 188 190 193 200 200 198 200 196 192 191 186 173 154 147 147 166 180 184 156 129 115 121 108 113 106 116 125 127 142 163 170 139 134 178 221 250 239 238 242 241 241 240 238 238 238 239 234 228 228
190 192 192 191 193 193 193 194 191 187 188 188 184 180 179 180 181 184 185 185 185 183 181 181 180 181 183 185 187 202 212 210 215 224 223 189 187 186 186 188 190 195 201 198 197 198 201 202 191 182 172 162 148 132 156 160 133 143 131 108 95 99 106 93 117 128 122 137 167 162 135 130 144 214 241 220 210 223 239 240 235 234 234 233 236 237 233 229
189 191 189 190 194 194 192 190 188 188 188 183 179 178 178 180 181 183 183 182 181 179 179 179 179 181 182 188 197 205 207 208 211 218 215 189 187 185 185 187 190 197 199 197 196 195 204 204 190 189 170 159 148 132 151 140 131 138 137 122 111 130 120 79 96 144 141 145 138 129 211 214 196 220 229 219 220 225 242 248 234 230 230 230 230 231 234 231
187 188 188 189 193 195 191 186 187 188 185 181 177 177 177 179 180 181 181 179 177 177 178 178 178 180 179 188 203 206 207 207 204 208 201 187 186 183 183 186 191 195 194 197 196 193 201 194 191 188 156 151 137 136 138 127 132 138 142 152 147 179 181 79 44 171 164 158 141 140 261 239 206 221 228 224 228 233 244 250 243 232 228 229 229 229 232 233
186 188 189 190 193 195 190 185 188 187 182 178 175 176 177 177 177 177 177 175 175 175 176 176 177 179 181 191 205 205 206 201 195 197 192 185 183 181 181 186 190 191 191 195 197 196 195 189 190 168 146 145 124 125 122 108 127 135 138 202 174 200 183 87 39 194 175 166 155 175 252 259 209 192 235 235 229 232 243 242 241 238 232 230 230 230 231 233
186 187 188 192 194 196 190 185 187 182 175 173 172 173 173 173 173 173 173 173 173 174 173 173 175 175 182 201 207 205 207 201 191 190 187 184 183 181 180 184 187 187 189 189 195 195 187 185 183 143 125 135 130 127 114 104 100 119 165 180 191 218 173 99 55 314 211 154 164 193 241 261 258 328 246 239 233 234 243 245 242 241 239 236 234 233 234 234
185 185 188 191 191 193 189 184 182 174 169 169 168 168 167 168 168 168 168 168 169 171 171 172 174 172 177 203 201 203 205 203 192 186 184 182 183 183 179 180 183 182 183 183 186 186 176 170 159 131 122 135 143 138 124 134 146 198 222 179 165 200 184 144 113 5 344 140 183 217 260 264 265 14 234 221 218 222 242 250 247 246 246 242 237 236 236 236
183 183 186 186 185 187 184 181 174 167 168 166 162 161 161 162 162 162 162 163 165 166 170 172 171 172 193 209 195 197 200 199 192 184 180 179 180 183 180 175 176 176 172 169 170 169 164 156 144 133 130 140 174 152 148 172 180 174 234 155 159 203 190 179 145 74 346 209 206 204 247 253 224 109 217 219 225 242 265 263 255 252 250 246 241 239 237 237
181 183 184 182 182 180 178 177 169 166 167 159 155 156 155 156 157 158 159 158 156 156 166 171 168 174 217 207 195 193 196 194 187 180 176 175 174 177 179 174 170 168 158 154 159 158 152 144 142 147 145 149 181 178 177 182 176 178 184 159 150 215 218 221 155 118 236 217 217 196 231 254 252 249 254 259 260 269 274 271 272 267 258 250 244 243 242 241
180 184 184 182 180 175 175 176 169 166 161 150 148 148 145 146 148 155 161 158 153 151 170 177 173 173 234 191 189 186 187 184 180 176 173 171 167 170 176 172 166 160 153 154 161 158 146 132 153 176 174 176 186 196 195 150 168 173 165 151 152 170 211 238 98 43 279 210 221 221 233 255 260 261 263 262 262 270 273 272 274 272 267 259 250 248 247 245
180 184 183 181 178 173 176 176 170 163 155 149 148 144 141 144 140 154 163 161 163 162 200 178 176 171 46 170 176 172 170 172 175 172 171 170 164 164 166 161 159 157 159 162 156 159 159 165 188 191 183 180 179 172 102 81 133 146 142 148 156 168 178 133 88 50 321 231 222 227 247 262 266 268 268 265 263 266 268 268 269 269 268 265 256 251 248 246
180 183 182 179 176 174 177 175 167 160 155 154 154 149 154 157 151 166 160 154 165 158 163 173 175 186 137 165 168 164 158 159 170 170 169 169 163 161 162 158 158 162 158 120 115 135 179 200 198 177 142 142 135 106 95 93 107 133 151 156 160 216 159 85 68 81 36 246 214 188 257 259 259 263 265 262 254 250 254 257 261 266 267 264 259 254 250 248
178 180 178 176 175 175 177 172 164 160 157 158 159 157 163 162 162 172 158 124 111 122 153 169 173 183 164 162 162 159 154 146 163 171 169 167 166 165 164 167 171 160 125 122 126 138 196 210 171 111 100 97 92 106 109 94 104 125 140 152 166 191 139 117 128 102 55 248 229 67 267 264 259 261 260 252 247 244 245 249 254 259 261 261 259 256 254 250
175 175 175 176 175 174 176 170 162 162 161 164 164 159 162 161 159 167 155 115 107 100 152 167 168 152 147 156 159 156 154 143 160 173 172 170 171 170 166 169 162 138 154 178 169 170 192 202 110 125 141 126 109 116 116 108 115 126 137 152 155 145 170 195 155 135 53 332 313 305 277 276 262 256 252 242 246 251 251 253 255 257 259 260 258 258 258 255
172 172 175 175 172 174 173 166 163 166 168 168 165 158 162 161 151 158 147 96 114 95 153 166 166 155 149 156 163 158 155 150 161 173 175 173 170 167 164 156 134 145 175 186 177 173 163 35 114 143 159 148 138 151 156 160 164 243 203 161 133 166 189 38 114 133 142 177 316 305 277 270 244 243 245 234 253 256 256 260 259 258 258 259 259 259 259 258
171 173 176 173 171 172 167 163 166 171 172 169 165 160 163 160 152 156 142 84 131 99 150 165 161 159 157 161 167 160 150 146 160 171 175 177 171 157 150 151 157 172 172 155 160 175 87 52 150 147 149 152 143 161 187 188 174 205 233 201 153 166 149 105 124 144 194 203 90 335 269 254 129 236 235 245 334 259 245 255 258 254 253 255 257 257 256 256
172 173 174 172 171 169 162 165 171 173 174 171 164 160 163 158 154 158 145 95 171 142 149 165 160 166 169 165 162 152 142 150 167 172 174 179 176 163 147 145 142 162 154 136 141 179 84 106 158 151 152 154 158 178 192 197 185 194 220 167 126 139 132 131 151 169 229 221 70 345 263 259 302 253 216 38 308 274 238 225 255 241 232 242 249 252 252 252
172 172 172 173 171 168 166 171 174 174 175 170 160 160 161 157 157 163 151 92 191 164 145 156 158 173 173 161 159 154 147 157 161 171 174 177 179 174 166 157 108 129 148 142 166 155 111 135 161 149 150 155 172 183 187 195 191 181 205 140 129 134 138 146 156 168 346 22 155 143 299 281 276 263 135 17 289 267 218 171 113 110 153 207 237 249 250 249
171 171 172 173 171 171 173 176 176 175 172 164 158 159 157 155 160 167 160 158 171 142 142 156 153 167 165 157 160 151 131 148 151 175 178 174 175 176 179 176 140 126 139 176 191 155 103 165 176 157 159 175 183 175 174 184 182 91 223 128 123 120 116 133 143 131 65 320 219 161 43 271 261 244 135 5 279 257 215 136 130 129 90 73 177 249 247 242
170 170 170 171 172 174 178 181 179 173 165 158 157 157 155 155 157 155 176 195 151 117 140 151 147 159 156 150 154 133 130 148 134 164 170 169 171 174 159 154 132 112 86 36 160 80 27 200 191 170 177 176 133 31 336 206 118 144 160 106 89 81 76 92 108 117 110 256 230 138 52 262 263 246 186 127 262 253 231 116 135 140 69 56 78 133 210 209
170 168 168 171 173 175 180 182 177 168 158 158 158 156 155 156 155 159 198 196 144 118 134 145 153 161 153 141 125 112 130 136 107 139 153 155 155 139 113 127 124 113 76 38 73 60 343 155 162 254 182 132 107 66 21 2 121 143 154 110 94 76 63 75 43 86 173 243 216 78 11 272 271 255 201 196 238 242 158 132 153 139 74 56 81 111 137 150
169 170 173 175 175 178 179 174 170 164 159 160 158 155 155 150 156 178 178 153 131 125 138 151 155 156 159 158 145 136 114 77 133 146 150 144 137 125 118 128 121 112 124 91 87 43 53 117 132 85 116 124 114 79 45 48 132 147 161 129 112 88 92 111 72 127 223 230 111 58 328 248 240 242 137 323 280 251 175 147 141 122 71 56 87 118 127 131
169 172 173 174 177 180 176 169 166 162 161 161 157 157 156 133 192 194 159 144 153 171 181 176 174 169 171 167 151 143 117 103 165 165 153 150 153 148 152 177 161 144 181 173 145 105 112 111 38 75 146 180 154 101 76 54 206 202 159 151 146 133 155 193 178 196 232 229 69 37 283 238 244 258 274 273 254 223 217 180 141 86 51 66 105 127 129 129
168 168 165 167 174 174 171 169 166 162 162 161 156 157 157 162 190 190 160 168 168 151 159 157 160 166 166 161 152 145 114 128 174 172 138 146 167 167 223 253 155 150 181 161 144 146 147 153 170 131 182 226 213 137 142 183 200 189 164 165 171 149 166 199 176 239 260 258 60 351 280 249 255 267 257 254 230 193 218 228 221 236 31 90 132 137 134 132
164 163 161 157 159 165 170 169 166 164 163 159 156 152 150 182 194 167 158 189 31 95 127 128 130 144 157 157 161 160 123 61 168 153 138 152 165 183 205 198 186 63 99 138 160 171 177 194 179 157 156 195 212 232 170 140 154 195 174 160 181 169 188 196 175 215 220 101 90 152 236 227 215 76 228 248 241 220 239 238 227 235 298 146 144 142 139 137
159 160 159 150 153 165 170 168 168 168 163 159 158 162 174 190 197 165 164 169 133 126 112 122 134 145 161 61 72 183 142 66 177 137 139 171 180 186 189 189 194 166 138 162 182 174 200 252 107 21 28 161 184 303 347 98 122 222 1 57 213 187 136 115 95 143 106 77 154 181 242 249 263 290 245 209 259 250 242 227 218 224 162 150 147 144 142 139
157 158 158 154 159 167 168 168 170 170 165 160 160 185 193 202 185 169 158 128 137 138 119 122 141 152 165 96 245 223 290 109 169 167 163 193 206 195 193 188 186 192 178 165 154 163 186 29 14 15 49 81 338 328 356 81 143 155 165 186 205 53 98 115 112 56 39 257 194 168 247 261 275 278 256 159 179 197 201 197 189 174 153 148 147 144 142 140
156 157 159 159 164 168 168 169 172 170 169 169 183 189 193 192 149 152 126 113 129 138 132 143 172 173 173 169 188 196 178 128 167 185 171 171 217 198 197 210 191 193 194 161 168 221 170 115 14 0 96 53 358 78 62 23 35 145 180 169 140 46 54 130 176 104 164 247 211 166 240 248 227 245 52 108 160 164 165 158 149 156 154 149 149 146 143 142
153 154 158 163 168 171 169 170 172 171 170 179 200 196 187 102 162 138 132 129 135 148 153 158 170 196 184 178 179 177 172 162 170 187 170 174 212 186 178 200 198 193 196 160 134 211 156 123 64 1 104 52 350 130 119 34 17 15 188 146 128 204 201 178 186 166 186 230 234 202 243 260 222 215 351 167 183 183 177 154 144 156 157 154 154 150 147 145
152 151 159 169 172 172 170 171 171 170 171 198 200 200 163 118 158 155 150 142 139 157 168 161 149 230 193 180 160 161 182 178 161 173 180 186 211 181 179 188 189 192 191 174 155 170 124 168 155 67 328 38 334 230 193 167 66 35 148 142 0 279 213 188 169 178 204 208 223 220 206 237 218 210 227 214 193 184 173 158 163 167 163 161 159 155 152 149
153 148 165 173 171 171 168 166 166 170 184 213 195 192 129 133 148 168 158 146 131 162 169 172 167 159 172 172 146 158 189 182 164 184 194 183 190 203 195 189 159 169 177 157 142 156 115 223 163 104 339 211 187 215 212 185 154 148 168 169 183 173 45 243 174 90 230 198 204 233 236 236 208 202 220 214 168 170 172 168 177 172 165 164 162 159 156 153
155 139 164 169 168 164 161 159 164 180 201 208 179 130 153 149 133 161 164 148 111 85 125 148 161 153 148 156 158 159 165 156 175 194 202 188 196 224 207 191 160 139 148 127 155 171 151 180 141 131 176 195 200 305 305 264 180 170 189 185 183 160 136 194 199 144 348 237 199 223 262 257 158 187 229 208 94 169 195 183 177 171 168 164 163 163 160 158
159 122 160 166 167 164 160 158 171 188 189 177 131 104 132 139 133 153 167 153 110 72 92 112 132 148 148 160 163 154 155 161 179 191 210 210 209 213 198 187 166 155 158 159 170 160 98 104 118 132 182 215 306 336 255 277 310 300 257 218 183 179 178 197 205 175 134 117 83 78 280 273 119 142 242 225 211 240 223 195 174 170 170 165 163 166 164 162
157 114 158 169 172 168 165 163 178 182 204 153 114 84 109 128 128 147 165 176 143 95 123 133 140 164 170 165 158 159 167 171 183 197 208 209 211 220 182 173 163 160 164 154 147 145 110 114 119 101 80 334 295 236 145 346 265 235 239 209 183 204 198 184 205 155 148 167 164 163 249 255 125 144 240 252 250 247 224 200 174 170 172 168 166 169 167 166
133 120 157 176 179 173 171 185 186 182 168 140 117 80 108 97 114 154 169 184 173 138 144 147 162 173 164 150 154 172 178 179 202 207 206 191 194 185 170 169 165 167 178 178 175 175 175 158 130 124 127 151 193 212 203 201 214 225 221 173 177 141 93 85 93 147 194 201 184 196 239 241 128 120 236 241 231 231 218 198 179 174 175 171 169 171 171 170
121 120 151 175 179 179 185 228 186 170 147 150 143 131 134 67 71 164 164 155 145 147 146 142 152 129 128 143 123 166 186 185 195 194 189 183 170 107 172 177 175 178 190 187 170 168 178 181 157 163 168 171 192 206 203 193 186 205 189 170 185 175 158 159 152 173 217 200 177 207 237 238 101 193 212 182 203 205 193 191 186 180 177 173 172 175 175 174
118 125 138 158 178 187 204 290 172 167 162 160 153 153 151 119 98 141 141 147 154 129 104 94 141 111 117 160 138 166 197 201 33 176 185 182 163 30 187 185 186 187 179 169 162 156 153 225 186 197 199 194 203 205 187 142 145 188 202 187 186 187 182 168 124 190 207 162 171 223 236 232 201 205 205 188 202 204 178 179 186 185 181 178 177 178 180 179
94 145 144 131 167 185 196 197 177 171 172 170 164 163 151 133 128 127 130 173 177 160 99 40 165 168 168 170 159 176 193 185 61 170 174 163 145 7 144 177 192 189 154 164 168 152 103 207 198 214 221 218 209 178 159 151 172 202 202 181 176 179 180 183 202 214 185 130 220 232 228 234 223 195 202 202 195 203 189 184 188 187 185 181 180 182 182 181
98 119 115 119 150 177 172 175 172 161 169 175 165 153 155 147 150 160 148 90 159 179 176 108 199 203 180 170 166 158 170 174 193 176 144 145 151 100 84 124 196 194 158 163 172 153 142 203 199 207 222 229 168 113 173 175 184 208 194 181 179 173 178 192 211 219 177 169 236 233 215 227 219 182 203 214 196 198 199 194 191 187 184 183 183 184 184 183
97 98 68 80 93 85 117 138 144 149 165 173 167 172 176 171 167 158 123 113 152 201 214 187 198 203 184 179 173 157 165 177 192 195 163 146 155 138 122 131 202 206 166 148 171 178 175 197 190 185 218 231 186 133 199 177 167 192 189 186 179 175 189 199 211 220 201 206 240 237 202 230 216 171 202 221 211 208 199 191 189 186 187 187 187 188 188 187
108 110 86 82 78 79 110 131 139 144 161 175 181 185 185 181 174 152 123 160 163 176 199 192 171 155 168 196 183 183 194 187 186 194 172 148 163 188 174 177 170 160 163 155 158 193 192 198 164 156 214 231 184 132 186 171 180 194 179 177 174 178 199 209 218 222 211 225 244 240 247 257 213 167 203 225 214 198 175 181 190 191 193 192 191 193 193 189
128 122 117 106 72 76 114 129 141 145 161 186 189 176 185 193 181 146 138 236 186 166 174 167 140 119 106 195 200 218 208 185 185 188 175 166 175 184 185 181 161 147 160 183 158 158 190 198 104 140 208 225 183 145 150 111 93 193 173 182 184 186 200 208 217 216 205 222 235 233 258 262 178 157 198 219 202 190 187 192 195 195 197 197 197 198 197 193
127 126 132 128 69 52 120 108 146 162 169 186 181 157 176 189 167 149 171 231 227 194 177 162 148 129 124 192 209 216 175 165 172 185 182 182 177 177 179 167 166 164 163 172 167 155 175 166 126 173 202 215 27 139 141 107 90 229 218 198 189 195 205 205 216 220 211 215 219 218 234 228 142 155 191 201 193 198 205 205 200 199 201 203 203 202 199 196
Height
1451 1454 1457 1459 1462 1465 1468 1471 1473 1475 1478 1481 1484 1488 1491 1495 1498 1502 1505 1509 1512 1515 1518 1520 1522 1524 1526 1527 1529 1531 1532 1533 1534 1535 1533 1531 1534 1537 1537 1538 1538 1538 1539 1540 1542 1543 1544 1545 1546 1547 1548 1549 1550 1550 1551 1552 1553 1554 1555 1558 1559 1559 1558 1557 1557 1558 1556 1557 1560 1562 1563 1563 1565 1566 1567 1567 1568 1569 1570 1571 1571 1571 1571 1571 1571 1571 1572 1573
1449 1452 1455 1457 1460 1464 1467 1470 1472 1474 1476 1478 1482 1486 1489 1492 1496 1500 1504 1507 1510 1514 1517 1519 1520 1521 1523 1525 1528 1530 1532 1533 1534 1533 1531 1531 1535 1535 1536 1537 1537 1538 1538 1540 1541 1543 1544 1544 1545 1546 1548 1549 1549 1550 1550 1551 1552 1554 1556 1558 1557 1556 1556 1555 1556 1557 1557 1557 1559 1561 1563 1564 1564 1565 1566 1566 1567 1569 1570 1570 1570 1571 1571 1571 1571 1571 1572 1573
1446 1450 1453 1456 1459 1462 1465 1468 1470 1472 1474 1476 1480 1483 1487 1491 1494 1498 1502 1505 1509 1512 1515 1517 1518 1519 1522 1525 1527 1530 1532 1534 1533 1530 1529 1531 1533 1534 1535 1536 1536 1537 1537 1539 1541 1543 1544 1544 1545 1546 1547 1548 1548 1549 1550 1551 1552 1554 1556 1556 1555 1555 1555 1556 1557 1557 1558 1558 1559 1561 1562 1564 1565 1565 1566 1566 1567 1569 1568 1568 1569 1569 1569 1570 1570 1571 1572 1573
1444 1448 1451 1454 1457 1460 1463 1466 1468 1470 1472 1475 1478 1481 1485 1489 1492 1497 1500 1504 1507 1510 1513 1515 1516 1518 1522 1524 1527 1530 1532 1534 1531 1527 1528 1530 1531 1532 1534 1534 1535 1536 1537 1539 1540 1542 1543 1545 1545 1546 1547 1547 1548 1549 1549 1551 1552 1553 1555 1554 1555 1555 1555 1556 1557 1558 1558 1559 1560 1561 1563 1564 1564 1565 1565 1565 1566 1566 1566 1566 1567 1568 1568 1569 1569 1570 1571 1572
1442 1446 1450 1452 1455 1459 1461 1464 1467 1469 1471 1473 1476 1479 1483 1487 1491 1495 1499 1502 1506 1508 1511 1513 1515 1518 1521 1524 1527 1529 1533 1533 1527 1524 1527 1528 1529 1531 1532 1533 1534 1536 1537 1538 1539 1541 1542 1544 1545 1545 1546 1546 1548 1548 1549 1551 1551 1553 1555 1555 1555 1556 1555 1556 1557 1558 1558 1559 1560 1561 1562 1563 1564 1565 1564 1565 1564 1563 1564 1565 1565 1566 1567 1568 1568 1569 1570 1571
1440 1444 1448 1451 1453 1457 1460 1463 1465 1468 1469 1471 1474 1478 1481 1485 1489 1493 1497 1501 1504 1507 1509 1512 1514 1518 1520 1523 1526 1528 1530 1528 1523 1523 1524 1525 1528 1529 1531 1532 1533 1535 1537 1537 1539 1540 1541 1543 1544 1544 1544 1545 1547 1547 1549 1551 1551 1552 1555 1556 1556 1556 1556 1557 1557 1557 1558 1559 1560 1561 1561 1562 1564 1564 1564 1564 1562 1562 1563 1564 1564 1564 1566 1567 1567 1568 1569 1570
1438 1442 1446 1449 1451 1455 1459 1461 1464 1466 1468 1470 1472 1476 1479 1483 1488 1492 1495 1499 1502 1505 1508 1511 1514 1516 1519 1522 1525 1527 1526 1522 1521 1522 1522 1523 1526 1527 1529 1531 1532 1534 1535 1536 1538 1539 1540 1541 1542 1542 1542 1544 1546 1547 1548 1550 1551 1551 1554 1556 1556 1556 1557 1557 1557 1557 1558 1559 1560 1561 1561 1563 1564 1564 1564 1562 1561 1562 1563 1563 1564 1564 1564 1565 1566 1567 1568 1569
1437 1441 1444 1448 1450 1453 1457 1460 1462 1464 1466 1468 1471 1474 1478 1482 1486 1490 1494 1497 1501 1504 1507 1510 1512 1515 1517 1520 1522 1524 1523 1520 1521 1522 1521 1522 1524 1526 1528 1529 1531 1533 1534 1536 1537 1538 1539 1540 1541 1541 1541 1542 1544 1546 1548 1550 1552 1552 1553 1556 1556 1557 1557 1557 1557 1558 1558 1559 1560 1561 1562 1563 1564 1564 1563 1560 1560 1561 1561 1562 1563 1563 1564 1564 1565 1566 1567 1568
1435 1439 1443 1446 1449 1452 1455 1458 1461 1463 1465 1467 1469 1473 1477 1481 1485 1489 1493 1496 1499 1503 1506 1509 1511 1513 1516 1518 1521 1522 1519 1518 1521 1521 1521 1522 1523 1525 1526 1528 1530 1532 1534 1535 1537 1538 1539 1539 1539 1539 1539 1541 1543 1545 1547 1549 1551 1551 1553 1555 1557 1557 1557 1558 1558 1558 1559 1559 1560 1560 1562 1563 1564 1565 1561 1558 1559 1559 1560 1561 1561 1562 1563 1563 1564 1565 1566 1566
1433 1437 1442 1445 1448 1451 1454 1457 1459 1462 1465 1466 1469 1472 1476 1480 1484 1488 1492 1495 1498 1502 1505 1508 1510 1512 1514 1516 1520 1519 1516 1518 1521 1521 1521 1521 1523 1524 1525 1528 1529 1531 1533 1535 1536 1538 1538 1538 1539 1540 1539 1540 1542 1545 1547 1548 1549 1550 1553 1556 1557 1558 1558 1558 1558 1559 1559 1560 1560 1560 1562 1563 1564 1565 1559 1556 1557 1558 1558 1559 1559 1560 1561 1562 1563 1564 1564 1565
1432 1436 1440 1444 1447 1450 1453 1456 1458 1461 1463 1465 1468 1472 1475 1479 1483 1487 1491 1494 1497 1501 1504 1506 1509 1511 1513 1515 1517 1516 1516 1518 1520 1520 1522 1521 1523 1524 1525 1527 1529 1531 1532 1534 1536 1537 1538 1539 1540 1540 1539 1540 1543 1546 1547 1548 1549 1551 1553 1556 1559 1559 1559 1559 1559 1559 1559 1560 1561 1560 1561 1563 1564 1563 1557 1555 1556 1556 1557 1557 1558 1559 1560 1561 1561 1562 1563 1563
1431 1434 1438 1442 1446 1449 1452 1455 1457 1460 1462 1464 1468 1471 1475 1478 1482 1486 1490 1493 1497 1500 1503 1505 1508 1510 1513 1515 1515 1515 1517 1518 1518 1520 1521 1521 1522 1523 1525 1527 1528 1530 1532 1534 1535 1537 1539 1539 1540 1539 1538 1539 1542 1546 1547 1549 1550 1551 1553 1555 1559 1559 1558 1560 1559 1559 1559 1560 1560 1560 1561 1560 1560 1558 1554 1555 1556 1556 1556 1556 1556 1557 1558 1559 1560 1561 1561 1562
1429 1433 1437 1441 1445 1448 1451 1454 1456 1459 1461 1464 1466 1470 1474 1478 1482 1486 1489 1493 1496 1499 1502 1505 1508 1510 1512 1514 1514 1515 1517 1517 1517 1519 1519 1520 1522 1523 1524 1526 1528 1530 1532 1534 1535 1537 1538 1539 1539 1539 1538 1539 1542 1544 1546 1549 1550 1552 1554 1554 1558 1559 1558 1559 1560 1560 1559 1560 1560 1561 1560 1554 1552 1553 1553 1554 1555 1555 1556 1556 1556 1556 1556 1557 1558 1559 1560 1560
1428 1432 1436 1440 1443 1447 1450 1453 1455 1457 1460 1463 1466 1469 1473 1477 1482 1486 1489 1493 1496 1499 1502 1505 1507 1509 1512 1513 1513 1514 1516 1516 1517 1518 1518 1520 1521 1522 1524 1526 1528 1530 1531 1533 1535 1537 1538 1538 1539 1539 1539 1539 1541 1544 1546 1551 1551 1552 1555 1556 1558 1559 1557 1559 1560 1559 1559 1560 1560 1561 1561 1552 1548 1551 1552 1552 1554 1555 1555 1555 1555 1555 1555 1556 1556 1557 1558 1559
1427 1430 1434 1439 1442 1445 1449 1452 1454 1457 1459 1462 1465 1469 1474 1478 1482 1486 1490 1492 1495 1499 1502 1504 1507 1509 1512 1512 1512 1513 1514 1515 1515 1516 1518 1519 1521 1522 1524 1526 1528 1530 1532 1533 1534 1536 1537 1538 1539 1539 1541 1541 1541 1544 1547 1551 1552 1553 1555 1557 1560 1559 1557 1558 1560 1560 1558 1559 1560 1560 1559 1552 1548 1550 1551 1552 1553 1554 1554 1554 1554 1554 1554 1554 1555 1556 1556 1557
1425 1429 1433 1437 1440 1443 1447 1451 1453 1456 1459 1461 1465 1470 1474 1479 1483 1486 1489 1493 1496 1499 1501 1504 1506 1508 1510 1510 1510 1511 1512 1513 1514 1515 1517 1518 1520 1522 1523 1526 1528 1530 1532 1533 1534 1536 1537 1538 1539 1539 1541 1542 1541 1542 1547 1552 1554 1555 1553 1554 1560 1560 1556 1557 1559 1561 1559 1559 1559 1559 1556 1550 1549 1551 1551 1551 1552 1552 1553 1553 1553 1553 1553 1553 1553 1554 1554 1555
1424 1428 1432 1435 1439 1442 1446 1449 1452 1455 1458 1461 1465 1470 1475 1479 1483 1486 1489 1493 1496 1499 1502 1503 1506 1509 1509 1508 1508 1508 1509 1511 1513 1514 1516 1518 1520 1521 1523 1525 1527 1530 1531 1533 1534 1535 1536 1537 1538 1539 1540 1542 1541 1539 1546 1555 1555 1556 1555 1557 1563 1561 1556 1555 1557 1560 1560 1559 1557 1558 1556 1550 1549 1551 1551 1552 1551 1552 1552 1552 1552 1552 1552 1552 1552 1552 1552 1553
1423 1427 1431 1434 1437 1441 1445 1448 1451 1454 1457 1461 1466 1470 1475 1479 1483 1486 1489 1492 1496 1500 1503 1504 1505 1507 1505 1503 1504 1505 1506 1510 1512 1513 1515 1517 1519 1521 1523 1525 1526 1529 1531 1533 1534 1534 1536 1537 1537 1538 1540 1542 1541 1538 1543 1549 1547 1549 1554 1557 1562 1562 1559 1556 1555 1559 1560 1559 1557 1557 1557 1551 1548 1550 1550 1551 1551 1551 1551 1550 1550 1550 1550 1550 1550 1550 1550 1550
1422 1426 1430 1433 1436 1440 1444 1447 1450 1453 1456 1461 1465 1470 1475 1480 1484 1488 1489 1490 1492 1495 1497 1496 1498 1499 1497 1497 1501 1503 1506 1509 1511 1513 1514 1516 1518 1521 1523 1525 1526 1528 1530 1531 1533 1534 1534 1536 1538 1538 1539 1540 1539 1535 1536 1539 1538 1543 1549 1551 1554 1556 1557 1557 1557 1560 1561 1559 1557 1556 1554 1550 1547 1548 1549 1549 1550 1550 1549 1548 1548 1548 1548 1548 1549 1548 1548 1548
1420 1424 1428 1432 1435 1439 1442 1445 1448 1452 1455 1458 1461 1466 1472 1475 1481 1486 1487 1488 1488 1488 1488 1488 1492 1494 1493 1495 1500 1502 1505 1508 1510 1512 1514 1516 1518 1521 1523 1525 1527 1528 1529 1529 1531 1534 1533 1535 1536 1534 1534 1534 1536 1536 1538 1540 1540 1543 1548 1550 1552 1552 1552 1556 1559 1561 1561 1558 1555 1555 1554 1551 1548 1547 1547 1548 1548 1549 1548 1546 1545 1545 1545 1546 1546 1546 1546 1546
1419 1423 1427 1431 1434 1437 1441 1444 1448 1451 1453 1456 1458 1461 1464 1465 1469 1473 1479 1485 1488 1487 1487 1488 1492 1494 1494 1495 1498 1500 1503 1507 1510 1512 1514 1516 1518 1520 1523 1525 1526 1528 1529 1529 1531 1533 1534 1534 1533 1531 1532 1534 1538 1541 1541 1543 1544 1545 1548 1551 1554 1555 1554 1558 1561 1560 1562 1559 1554 1557 1557 1552 1548 1545 1544 1545 1545 1545 1545 1544 1543 1542 1543 1543 1543 1544 1544 1544
1418 1422 1426 1429 1433 1436 1440 1443 1447 1451 1453 1456 1457 1459 1461 1464 1465 1467 1473 1482 1488 1488 1489 1490 1492 1494 1495 1497 1498 1500 1502 1505 1510 1512 1513 1516 1517 1518 1522 1524 1524 1527 1530 1530 1531 1534 1535 1532 1531 1533 1536 1538 1542 1544 1542 1544 1546 1547 1549 1550 1553 1556 1557 1559 1562 1561 1562 1559 1554 1557 1558 1548 1544 1543 1541 1542 1541 1540 1541 1541 1541 1540 1540 1540 1540 1541 1541 1542
1417 1421 1425 1428 1431 1435 1439 1443 1447 1450 1452 1454 1456 1459 1463 1466 1469 1472 1476 1482 1488 1491 1490 1491 1493 1495 1495 1498 1499 1500 1501 1504 1507 1510 1512 1514 1515 1517 1520 1522 1523 1527 1530 1528 1528 1533 1535 1532 1532 1537 1538 1539 1544 1545 1543 1544 1547 1548 1548 1549 1552 1557 1555 1553 1558 1562 1563 1561 1558 1559 1556 1545 1539 1539 1537 1537 1537 1536 1537 1537 1537 1538 1537 1537 1538 1538 1538 1539
1416 1420 1423 1426 1431 1434 1438 1443 1447 1449 1451 1453 1457 1461 1464 1468 1470 1474 1478 1483 1489 1491 1491 1492 1493 1494 1496 1498 1500 1501 1502 1504 1505 1509 1512 1513 1515 1516 1518 1521 1524 1527 1528 1526 1527 1529 1532 1535 1536 1538 1538 1538 1542 1545 1543 1542 1546 1550 1548 1547 1550 1553 1553 1552 1556 1561 1562 1562 1562 1559 1553 1541 1536 1537 1534 1533 1536 1535 1534 1535 1535 1535 1535 1534 1534 1534 1535 1535
1416 1419 1422 1425 1430 1433 1437 1442 1445 1447 1450 1454 1458 1461 1465 1468 1471 1474 1477 1483 1491 1492 1491 1492 1494 1495 1496 1498 1500 1502 1503 1505 1506 1508 1511 1513 1514 1516 1518 1521 1523 1525 1527 1528 1529 1529 1532 1537 1538 1538 1539 1539 1541 1543 1542 1540 1544 1550 1548 1546 1546 1546 1550 1555 1557 1558 1556 1558 1561 1562 1554 1540 1535 1536 1533 1532 1534 1533 1532 1533 1533 1532 1532 1532 1531 1531 1532 1532
1415 1418 1421 1425 1428 1432 1437 1441 1443 1447 1450 1454 1458 1460 1465 1467 1471 1474 1476 1484 1491 1491 1491 1492 1493 1494 1495 1497 1500 1502 1504 1506 1508 1508 1511 1513 1514 1514 1517 1520 1522 1524 1527 1529 1530 1532 1535 1539 1539 1538 1538 1540 1541 1542 1542 1541 1544 1547 1547 1547 1547 1546 1548 1554 1555 1554 1553 1555 1562 1565 1558 1545 1536 1531 1530 1535 1535 1531 1531 1531 1531 1531 1530 1530 1529 1529 1529 1529
1414 1417 1420 1424 1427 1430 1434 1436 1440 1444 1448 1454 1457 1460 1464 1467 1471 1473 1477 1490 1493 1487 1489 1491 1491 1493 1494 1497 1498 1500 1504 1506 1508 1510 1510 1512 1514 1514 1516 1519 1521 1524 1527 1529 1531 1533 1537 1540 1540 1538 1539 1540 1541 1540 1540 1541 1542 1545 1548 1549 1548 1546 1548 1551 1552 1552 1554 1557 1561 1563 1560 1554 1544 1532 1531 1536 1534 1528 1529 1530 1530 1530 1529 1528 1527 1527 1526 1526
1414 1417 1420 1423 1427 1429 1431 1434 1437 1441 1446 1453 1456 1461 1464 1466 1472 1471 1478 1495 1492 1481 1485 1489 1489 1492 1494 1496 1498 1499 1501 1502 1506 1510 1510 1511 1514 1514 1515 1517 1518 1522 1527 1527 1529 1533 1536 1538 1538 1538 1539 1539 1538 1538 1539 1539 1541 1547 1552 1551 1548 1548 1550 1550 1551 1553 1558 1560 1557 1558 1561 1559 1546 1533 1532 1536 1532 1526 1526 1528 1530 1529 1529 1528 1526 1525 1524 1524
1414 1417 1420 1424 1426 1429 1433 1435 1437 1442 1449 1454 1457 1461 1463 1467 1472 1472 1481 1490 1483 1478 1483 1486 1488 1491 1493 1495 1498 1499 1500 1502 1504 1507 1510 1511 1513 1513 1515 1517 1518 1522 1527 1525 1527 1534 1536 1536 1536 1535 1535 1535 1538 1542 1542 1540 1541 1547 1553 1551 1550 1552 1553 1553 1554 1553 1559 1561 1556 1560 1567 1561 1544 1530 1530 1535 1532 1526 1524 1526 1529 1528 1528 1527 1525 1525 1523 1523
1414 1417 1419 1422 1425 1429 1432 1436 1441 1446 1450 1454 1457 1460 1464 1468 1470 1477 1489 1484 1473 1479 1483 1484 1487 1489 1491 1495 1498 1500 1501 1503 1504 1506 1510 1511 1512 1513 1514 1518 1520 1522 1527 1528 1531 1536 1537 1536 1537 1537 1535 1536 1541 1545 1545 1543 1542 1546 1549 1547 1550 1553 1552 1555 1555 1554 1560 1561 1559 1568 1574 1568 1551 1531 1525 1529 1527 1524 1524 1526 1528 1527 1528 1527 1525 1525 1523 1522
1413 1416 1419 1421 1424 1428 1431 1436 1442 1446 1449 1452 1456 1460 1463 1469 1470 1479 1488 1474 1468 1482 1485 1483 1486 1487 1488 1491 1495 1500 1501 1503 1504 1505 1508 1510 1512 1513 1514 1518 1521 1524 1528 1529 1533 1537 1537 1537 1538 1538 1538 1539 1540 1542 1547 1547 1545 1546 1544 1542 1549 1554 1555 1557 1558 1560 1562 1560 1563 1574 1578 1574 1559 1533 1522 1526 1526 1525 1525 1525 1526 1527 1527 1527 1525 1525 1524 1523
1413 1416 1419 1423 1426 1429 1433 1438 1441 1444 1449 1451 1455 1459 1460 1471 1476 1474 1474 1467 1468 1479 1479 1478 1482 1483 1484 1485 1491 1498 1500 1503 1505 1504 1505 1508 1511 1511 1511 1513 1515 1524 1529 1527 1531 1536 1535 1537 1539 1539 1539 1539 1536 1540 1549 1550 1546 1544 1541 1542 1550 1558 1562 1562 1562 1565 1563 1561 1568 1576 1577 1571 1552 1529 1522 1524 1524 1525 1525 1524 1526 1527 1527 1527 1526 1525 1524 1524
1413 1416 1420 1423 1426 1431 1435 1438 1441 1444 1448 1450 1456 1458 1459 1472 1473 1463 1464 1466 1465 1469 1470 1473 1477 1479 1481 1484 1490 1495 1497 1501 1503 1504 1505 1507 1509 1510 1510 1511 1511 1516 1521 1524 1530 1534 1535 1538 1539 1539 1539 1537 1533 1536 1544 1547 1545 1541 1537 1539 1545 1557 1567 1568 1570 1573 1567 1563 1571 1578 1575 1563 1543 1526 1521 1519 1520 1524 1524 1525 1526 1526 1527 1527 1526 1526 1525 1525
1413 1416 1419 1423 1427 1432 1434 1438 1441 1444 1447 1450 1454 1457 1463 1469 1462 1454 1461 1465 1463 1466 1468 1471 1477 1481 1482 1484 1488 1490 1494 1501 1503 1502 1506 1508 1510 1512 1511 1511 1512 1511 1515 1523 1527 1528 1531 1534 1533 1534 1535 1534 1533 1532 1533 1535 1539 1541 1536 1535 1539 1544 1552 1557 1561 1561 1560 1564 1572 1578 1569 1548 1532 1524 1519 1519 1521 1523 1523 1524 1525 1526 1527 1527 1526 1526 1525 1525
1412 1416 1419 1423 1426 1430 1433 1437 1441 1443 1446 1449 1452 1457 1462 1459 1452 1451 1457 1461 1464 1468 1469 1472 1476 1482 1485 1487 1489 1488 1489 1499 1503 1503 1506 1506 1506 1508 1506 1507 1510 1511 1513 1521 1525 1525 1527 1528 1531 1534 1533 1533 1534 1533 1532 1532 1538 1545 1542 1539 1539 1535 1538 1556 1567 1563 1563 1566 1565 1567 1557 1535 1524 1519 1517 1520 1521 1521 1523 1523 1525 1526 1526 1527 1526 1526 1526 1525
1411 1415 1419 1423 1425 1428 1432 1435 1439 1443 1445 1447 1451 1455 1451 1446 1446 1447 1449 1454 1460 1463 1468 1476 1478 1481 1487 1490 1491 1490 1488 1493 1501 1504 1506 1505 1503 1503 1502 1501 1505 1507 1506 1511 1520 1524 1525 1529 1534 1536 1534 1535 1535 1534 1534 1533 1537 1543 1544 1541 1540 1537 1538 1555 1572 1575 1571 1560 1551 1554 1547 1531 1525 1518 1513 1519 1519 1519 1522 1521 1524 1526 1526 1527 1527 1526 1526 1526
1410 1414 1418 1422 1425 1428 1431 1434 1438 1442 1445 1446 1448 1447 1441 1441 1445 1446 1446 1451 1456 1458 1463 1473 1477 1478 1483 1487 1489 1488 1487 1491 1498 1500 1502 1505 1502 1499 1500 1499 1499 1502 1500 1503 1512 1515 1519 1529 1537 1536 1535 1536 1536 1535 1536 1534 1534 1538 1540 1537 1538 1542 1541 1542 1554 1567 1568 1556 1547 1550 1544 1533 1530 1522 1514 1517 1518 1517 1520 1520 1523 1525 1525 1527 1527 1526 1527 1526
1409 1413 1418 1421 1424 1427 1430 1434 1438 1440 1445 1446 1443 1440 1439 1441 1445 1446 1447 1449 1453 1456 1458 1464 1471 1474 1476 1479 1483 1485 1485 1488 1496 1497 1498 1502 1497 1491 1495 1498 1497 1499 1499 1500 1506 1509 1512 1524 1537 1538 1536 1537 1536 1535 1536 1536 1536 1535 1534 1533 1534 1540 1542 1540 1547 1554 1557 1556 1548 1548 1549 1541 1533 1523 1513 1514 1515 1514 1517 1520 1521 1523 1524 1526 1526 1527 1527 1527
1408 1413 1417 1420 1424 1427 1430 1434 1437 1440 1444 1443 1437 1436 1438 1441 1444 1446 1446 1447 1449 1453 1455 1458 1465 1471 1473 1473 1476 1483 1484 1484 1491 1493 1492 1497 1493 1486 1487 1490 1493 1498 1499 1500 1503 1507 1510 1518 1532 1539 1537 1537 1537 1535 1533 1534 1537 1537 1535 1535 1536 1535 1535 1537 1540 1539 1541 1549 1547 1545 1547 1537 1524 1518 1511 1508 1509 1509 1513 1518 1519 1520 1522 1523 1525 1526 1527 1527
1407 1412 1416 1419 1422 1427 1430 1434 1438 1441 1441 1435 1430 1433 1436 1439 1444 1446 1445 1447 1449 1451 1453 1455 1460 1466 1471 1472 1473 1479 1482 1482 1487 1488 1486 1489 1490 1487 1486 1486 1490 1496 1499 1501 1502 1506 1511 1513 1525 1538 1539 1537 1535 1532 1528 1526 1531 1535 1534 1535 1537 1537 1538 1536 1537 1537 1535 1539 1544 1544 1539 1523 1512 1512 1508 1505 1508 1509 1511 1515 1517 1518 1520 1522 1524 1525 1526 1527
1407 1411 1414 1418 1422 1426 1430 1434 1437 1437 1435 1431 1429 1433 1436 1438 1442 1445 1445 1447 1449 1450 1451 1453 1457 1460 1465 1470 1472 1475 1480 1483 1485 1485 1484 1485 1484 1483 1483 1482 1486 1492 1498 1503 1502 1503 1509 1512 1522 1537 1539 1534 1530 1530 1530 1528 1527 1527 1527 1527 1527 1530 1535 1535 1538 1543 1541 1539 1542 1544 1535 1516 1506 1509 1508 1507 1510 1511 1511 1513 1515 1517 1519 1521 1523 1525 1526 1526
1406 1409 1412 1416 1420 1423 1426 1430 1432 1431 1431 1431 1430 1431 1435 1437 1440 1444 1446 1447 1448 1451 1452 1454 1456 1459 1461 1464 1467 1471 1477 1481 1484 1483 1481 1480 1477 1476 1478 1480 1483 1487 1491 1498 1499 1500 1505 1512 1524 1535 1535 1532 1532 1533 1535 1533 1530 1528 1527 1525 1523 1523 1525 1525 1529 1538 1545 1549 1548 1547 1541 1518 1505 1510 1511 1510 1512 1512 1512 1514 1515 1517 1519 1520 1523 1524 1525 1526
1405 1407 1411 1415 1418 1421 1424 1428 1430 1430 1431 1431 1430 1432 1434 1436 1439 1443 1445 1446 1448 1450 1452 1453 1455 1458 1459 1462 1464 1467 1471 1475 1479 1477 1475 1476 1476 1476 1478 1480 1482 1485 1488 1493 1497 1500 1504 1509 1522 1533 1533 1531 1532 1532 1533 1534 1533 1529 1526 1525 1525 1523 1520 1521 1525 1528 1537 1546 1543 1544 1543 1519 1504 1511 1512 1510 1512 1512 1512 1513 1514 1517 1519 1520 1522 1522 1524 1525
1404 1407 1411 1415 1418 1421 1421 1420 1421 1424 1428 1430 1431 1434 1435 1436 1438 1440 1443 1444 1446 1448 1450 1451 1453 1455 1457 1460 1462 1463 1465 1469 1474 1474 1473 1475 1476 1477 1478 1478 1480 1483 1485 1486 1489 1494 1499 1503 1514 1530 1535 1534 1534 1534 1532 1533 1531 1525 1522 1523 1524 1523 1525 1529 1530 1528 1531 1535 1530 1533 1532 1512 1503 1511 1511 1509 1512 1510 1511 1513 1513 1515 1517 1518 1520 1521 1522 1523
1403 1408 1411 1414 1417 1418 1417 1414 1414 1419 1427 1429 1431 1433 1435 1437 1438 1439 1440 1443 1445 1446 1447 1449 1452 1453 1456 1459 1461 1463 1462 1463 1468 1471 1474 1475 1475 1477 1478 1478 1480 1480 1480 1482 1482 1486 1493 1497 1502 1513 1523 1527 1528 1524 1517 1516 1522 1522 1521 1522 1521 1521 1523 1523 1526 1529 1529 1530 1529 1524 1516 1506 1505 1509 1508 1509 1510 1509 1510 1512 1512 1515 1516 1517 1519 1520 1520 1521
1402 1406 1410 1413 1416 1416 1416 1415 1415 1419 1424 1425 1429 1432 1433 1435 1439 1439 1440 1442 1445 1446 1446 1449 1451 1452 1455 1457 1460 1463 1463 1463 1466 1468 1470 1473 1476 1478 1478 1478 1480 1480 1480 1483 1483 1486 1492 1495 1494 1494 1498 1500 1500 1499 1497 1499 1509 1514 1512 1514 1516 1518 1519 1518 1523 1526 1522 1527 1532 1519 1507 1506 1507 1505 1505 1507 1508 1507 1508 1510 1512 1513 1514 1516 1517 1518 1519 1520
1401 1403 1406 1409 1413 1415 1416 1417 1416 1417 1420 1421 1425 1428 1430 1433 1438 1440 1441 1442 1443 1445 1446 1449 1449 1450 1452 1454 1457 1460 1461 1463 1467 1466 1467 1472 1476 1478 1479 1478 1479 1480 1481 1482 1483 1486 1491 1493 1492 1490 1488 1486 1486 1491 1494 1496 1501 1502 1503 1509 1513 1516 1519 1519 1519 1514 1511 1523 1526 1511 1505 1509 1504 1501 1502 1503 1504 1505 1506 1507 1508 1509 1511 1514 1516 1517 1518 1519
1401 1403 1403 1404 1407 1409 1411 1413 1414 1416 1419 1421 1423 1426 1428 1431 1434 1436 1439 1442 1443 1444 1445 1448 1448 1446 1447 1448 1452 1457 1461 1465 1467 1467 1468 1472 1475 1478 1479 1479 1480 1480 1480 1482 1483 1484 1487 1489 1489 1490 1489 1488 1490 1494 1495 1494 1497 1498 1501 1507 1511 1515 1518 1517 1513 1506 1507 1516 1509 1496 1500 1505 1498 1497 1499 1498 1500 1501 1501 1503 1505 1507 1510 1512 1514 1515 1516 1516
1401 1403 1404 1403 1405 1407 1408 1410 1412 1415 1418 1421 1424 1425 1426 1428 1430 1432 1435 1440 1443 1443 1443 1444 1445 1445 1446 1446 1447 1452 1458 1460 1462 1465 1468 1470 1473 1475 1476 1478 1480 1480 1480 1481 1482 1483 1484 1485 1486 1490 1490 1489 1492 1497 1497 1495 1497 1498 1500 1503 1507 1512 1512 1509 1506 1502 1503 1505 1496 1491 1499 1499 1493 1495 1496 1495 1498 1499 1500 1503 1505 1507 1509 1509 1511 1512 1512 1513
1401 1402 1403 1404 1406 1408 1409 1410 1412 1415 1419 1421 1423 1424 1423 1424 1428 1430 1433 1435 1438 1441 1442 1441 1442 1445 1447 1447 1446 1448 1449 1448 1451 1457 1462 1467 1470 1471 1471 1471 1474 1479 1481 1480 1482 1483 1483 1484 1486 1489 1491 1490 1493 1497 1499 1499 1497 1497 1501 1503 1506 1510 1511 1508 1504 1500 1503 1503 1496 1497 1504 1498 1490 1493 1495 1496 1498 1499 1501 1504 1504 1505 1507 1507 1508 1509 1509 1510
1402 1402 1403 1404 1407 1410 1411 1412 1412 1414 1418 1419 1419 1421 1423 1423 1425 1429 1432 1432 1433 1436 1438 1439 1441 1445 1448 1449 1447 1447 1447 1446 1448 1450 1453 1457 1459 1461 1463 1464 1467 1475 1479 1480 1480 1481 1483 1487 1489 1490 1491 1490 1493 1499 1502 1502 1501 1501 1504 1506 1506 1506 1506 1503 1498 1495 1499 1500 1498 1504 1505 1494 1487 1491 1495 1497 1498 1499 1500 1500 1501 1503 1503 1504 1504 1504 1506 1507
1403 1403 1404 1405 1409 1412 1412 1413 1413 1413 1415 1416 1416 1419 1421 1422 1424 1428 1431 1432 1432 1433 1436 1437 1440 1444 1448 1449 1447 1446 1447 1448 1449 1450 1451 1453 1454 1456 1458 1460 1461 1466 1472 1476 1478 1479 1481 1483 1486 1489 1488 1489 1500 1505 1501 1502 1506 1503 1498 1496 1497 1497 1494 1493 1493 1492 1493 1494 1497 1500 1493 1483 1484 1489 1492 1494 1496 1496 1496 1496 1497 1498 1499 1500 1500 1501 1504 1505